Location: Haliburton Scout Reserve
(45.0900°N, 78.3200°W)
Time: 02:45:36
(UTC-04:00)

DIWATA 2B (PO-101) - Pass Details

Date: 24 May 2022
Orbit: 585 x 597 km, 98.0° (Epoch: 27 June)

Event Time Altitude Azimuth Distance (km) Brightness Sun altitude
Exits shadow 03:35:16 31° 225° (SW) 1,034 ? -16.3°
Maximum altitude 03:36:25 38° 262° (W) 906 ? -16.2°
Drops below altitude 10° 03:40:19 10° 331° (NNW) 1,923 ? -15.8°
Sets 03:42:37 0° 340° (NNW) 2,831 ? -15.5°
